Salem, TX

8:42 AM CST on January 18, 2017 (GMT -0600)
Ray Branch - Lake Fork | | Change Station

Elev 420 ft 32.81 °N, 95.58 °W | Updated 1 minute ago

Rain
Rain
47.8 °F
Feels Like 48 °F
N
2.0
Wind Variable Wind from East
Gusts 4.0 mph

Today
High -- | Low -- °F
--% Chance of Precip.
Yesterday
High -- | Low -- °F
Precip. -- in
Pressure 30.12 in
Visibility 5.0 miles
Clouds Overcast 500 ft
Windchill 48 °F
Dew Point 47 °F
Humidity 97%
Rainfall 1.06 in
Snow Depth Not available.
7:24 AM 5:42 PM
Waning Gibbous, 63% visible
METAR KJDD 181435Z AUTO 04003KT 5SM -RA BR OVC005 08/08 A3012 RMK AO2 P0001
Pressure 30.12 in
Visibility 5.0 miles
Clouds Overcast 500 ft
Windchill 48 °F
Dew Point 47 °F
Humidity 97%
Rainfall 1.06 in
Snow Depth Not available.
7:24 AM 5:42 PM
Waning Gibbous, 63% visible
METAR KJDD 181435Z AUTO 04003KT 5SM -RA BR OVC005 08/08 A3012 RMK AO2 P0001

Get Your Daily Forecast Email!

Thanks for signing up!

Be on the lookout for a verification email in your inbox.

You'll start receiving the daily forecast at 8 AM.

×

10-Day Weather Forecast

Almanac

Astronomy

Jan. 18, 2017 Rise Set
Actual Time
Civil Twilight
Nautical Twilight
Astronomical Twilight
Moon
Length of Visible Light
Length of Day
Tomorrow will be .
, % of the Moon is Illuminated

Today's Extremes

State Highs State Lows

Community

WunderPhotos

Upload Photos

1,962,540 photos uploaded!

WunderBlog® & News

Nearby

Air Quality

  Air Quality AQ Index Pollutant
Not available.

Snow Depth

Station Depth Elevation

Earthquake Activity

City Distance Mag. Time & Date
Minimum magnitude displayed is 2.5.

Coastal Water Temperatures

Place Temperature

Stations

Nearby Weather Stations

Station Location Temp. Windchill Dew Point Humidity Wind Precip. Elev Updated Type
                   

Watches & Warnings

There are currently no watches in effect.